Location: K�lso
(51.8672°N, 12.7823°E)
Time: 00:32:41
(UTC+00:00)

Daily predictions for brighter satellites

Satellite Brightness Start Highest point End
(mag) Time Altitude Azimuth Time Altitude Azimuth Time Altitude Azimuth
SL-16 R/B 3.0 00:12:20 56° NNE 00:12:20 56° NNE 00:17:34 10° NNW
Cosmos 1943 Rocket 3.6 00:17:17 32° NNW 00:17:17 32° NNW 00:21:19 10° NNE
CZ-2D R/B 3.5 00:17:06 10° NNE 00:20:45 34° ENE 00:20:45 34° ENE
ATLAS 5 CENTAUR R/B 4.0 00:26:24 18° ENE 00:26:24 18° ENE 00:27:51 10° ENE
Cosmos 2297 Rocket 3.1 00:24:24 10° NNW 00:28:49 46° N 00:28:49 46° N
Resurs 1-4 Rocket 3.1 00:31:05 10° NNE 00:34:54 41° NE 00:34:54 41° NE
Cosmos 2369 Rocket 3.5 00:41:05 33° NNW 00:41:05 33° NNW 00:45:32 10° NNE
Nadezhda 1 Rocket 4.4 00:42:41 56° NNW 00:42:41 56° NNW 00:47:32 10° N
Gbstr 26 Del rocket 4.4 00:44:54 86° WSW 00:45:07 88° S 00:53:02 10° E
CZ-4C R/B 3.8 00:47:10 27° NW 00:49:01 32° NNW 00:55:08 10° NE
USA 267 4.2 00:49:29 10° ENE 00:54:57 34° SE 00:54:57 34° SE
ATLAS 2AS CENTAUR R/B 4.3 00:51:45 10° WNW 00:58:49 34° N 01:05:33 10° ENE
Cosmos 2221 4.3 01:06:05 27° N 01:06:05 27° N 01:08:08 10° N
Cosmos 1818 4.3 01:05:33 46° E 01:05:33 46° E 01:09:52 10° NE
SL-8 Rocket 4.0 01:06:36 10° NNW 01:12:12 69° NW 01:12:12 69° NW
Meteor 2-2 Rocket 4.4 01:23:00 66° NNW 01:23:00 66° NNW 01:28:13 10° N
Cosmos 2218 Rocket 3.9 01:17:51 10° NNW 01:24:06 75° W 01:24:06 75° W
Cosmos 2366 rocket 3.9 01:20:27 10° NNW 01:26:34 75° W 01:26:34 75° W
Cosmos 2227 Rocket 2.9 01:21:26 10° NNW 01:25:13 44° NW 01:25:13 44° NW
Cosmos 1992 Rocket 4.1 01:30:28 69° E 01:30:28 69° E 01:35:23 10° NNE
Cosmos 1656 4.0 01:30:38 55° ESE 01:30:48 55° ESE 01:36:12 10° NE
Lacrosse 5 3.5 01:32:48 24° SE 01:32:48 24° SE 01:36:36 10° ENE
USA 234 3.1 01:26:20 10° ESE 01:32:53 86° SSW 01:37:44 20° WNW
ADEOS II 2.1 01:32:55 10° NNE 01:38:13 72° ESE 01:38:28 70° SE
CZ-4B R/B 3.5 01:35:42 10° NNE 01:40:47 79° ESE 01:40:47 79° ESE
Cosmos 864 Rocket 4.5 01:37:45 10° NNW 01:43:28 59° WNW 01:43:28 59° WNW
SL-08 R/B 3.3 01:47:13 77° NE 01:47:13 77° NE 01:51:45 10° NNW
NOSS 2-2 (C) 4.4 01:42:01 10° NW 01:47:14 80° NE 01:54:29 10° SE
Cosmos 220 Rocket 4.5 01:48:14 56° ENE 01:48:14 56° ENE 01:51:51 10° NNE
SL-08 R/B 4.4 01:41:33 10° NNW 01:47:58 81° W 01:49:27 56° S
Cosmos 2181 Rocket 4.0 01:47:57 60° W 01:48:12 61° WNW 01:54:22 10° N
Cosmos 1633 Rocket 3.6 01:45:35 10° N 01:48:58 53° N 01:48:58 53° N
IDEFIX/ARIANE 42P 3.7 01:46:09 10° NNE 01:51:06 39° E 01:53:40 24° SSE
Cosmos 1328 Rocket 4.3 01:51:45 45° ESE 01:52:19 48° E 01:56:37 10° NNE
IRS-1C 4.3 01:49:20 10° NNE 01:54:41 66° ESE 01:55:57 50° SSE
Cosmos 1666 Rocket 4.3 01:50:40 10° NNW 01:53:47 44° NNW 01:53:47 44° NNW
SL-16 R/B 3.8 01:57:26 25° WNW 01:57:26 25° WNW 02:00:50 10° NNW
Cosmos 1241 Rocket 4.4 01:54:48 60° WSW 01:55:56 74° NW 02:02:25 10° NE
Cosmos 1606 3.6 01:59:13 43° N 01:59:13 43° N 02:01:52 10° N
ARIANE 5 R/B 2.9 01:55:12 10° NNE 02:00:16 57° ESE 02:01:51 40° SSE
ATLAS CENTAUR R/B 4.3 01:43:03 10° W 02:00:17 64° N 02:06:23 10° ENE
Cosmos 1151 Rocket 3.3 02:00:38 61° ESE 02:00:54 62° E 02:05:12 10° NNE
IRS-1D 3.5 01:55:58 10° NNE 02:01:19 72° WNW 02:01:47 67° WSW
CZ-2D R/B 2.8 01:57:16 10° N 02:02:04 38° WNW 02:02:04 38° WNW
AQUA 4.4 01:58:04 10° N 02:02:08 44° NW 02:02:08 44° NW
ATLAS 5 CENTAUR R/B 2.2 02:07:56 46° NW 02:08:08 46° NNW 02:12:53 10° NE
NPP 4.2 02:03:17 10° N 02:08:19 41° WNW 02:08:28 41° WNW
Genesis I 4.1 02:12:59 38° NNW 02:12:59 38° NNW 02:16:15 10° NNE
CBERS-1 4.0 02:08:27 10° N 02:13:30 60° WNW 02:13:59 57° W
Cosmos 2297 Rocket 3.9 02:08:51 10° NW 02:10:32 18° NW 02:10:32 18° NW
Resurs 1-4 Rocket 3.1 02:11:19 10° N 02:15:52 30° WNW 02:15:58 30° WNW
Cosmos 1933 3.2 02:18:15 81° NW 02:18:15 81° NW 02:22:17 10° N
Cosmos 2082 3.7 02:12:46 10° NW 02:18:20 58° WSW 02:20:23 37° S
USA 305 3.8 02:22:42 36° SSE 02:23:03 37° SE 02:26:58 10° ENE
Cosmos 2369 Rocket 4.5 02:23:28 10° NW 02:26:15 14° NNW 02:29:03 10° N
Meteor 1-26 Rocket 4.3 02:24:04 27° S 02:27:06 72° E 02:32:30 10° NNE
USA 306 3.7 02:26:37 37° SSE 02:27:06 38° SE 02:31:04 10° ENE
CZ-2D R/B 3.6 02:23:12 10° NNE 02:27:23 71° ESE 02:28:45 41° S
X-37B 3.0 02:29:08 16° SE 02:29:08 16° SE 02:30:15 10° ESE
SJ 16-02 2.5 02:24:22 10° NNW 02:28:35 44° ENE 02:32:48 10° SE
Meteor 1-25 Rocket 4.2 02:24:18 10° NNW 02:30:04 62° W 02:33:00 29° SSW
Gbstr 26 Del rocket 4.4 02:27:26 24° W 02:32:51 81° SSW 02:40:21 10° ESE
ASTEX 1 3.4 02:28:25 10° N 02:33:27 85° E 02:36:22 26° S
Cosmos 389 Rocket 3.4 02:32:18 32° SSE 02:33:30 47° E 02:36:58 10° NNE
IRS-P3 4.2 02:28:32 10° N 02:33:49 62° WNW 02:35:28 42° SW
Cosmos 1697 Rocket 2.6 02:32:33 38° SSW 02:34:50 88° ESE 02:40:29 10° NNE
CZ-2C R/B 4.1 02:32:46 10° NNE 02:37:24 34° E 02:42:05 10° SSE
H-2A R/B 2.3 02:33:25 10° SSE 02:37:46 73° ENE 02:42:15 10° NNW
USA 267 3.2 02:32:21 10° ENE 02:38:56 85° SSE 02:42:17 32° WSW
Cosmos 1980 Rocket 2.7 02:35:19 21° S 02:38:58 57° ESE 02:44:32 10° NE
CZ-4C R/B 4.2 02:33:38 10° NW 02:39:21 33° NNE 02:46:02 10° ENE
ERS-2 3.3 02:37:41 10° SE 02:41:11 45° ENE 02:44:43 10° N
Iridium 2 3.9 02:39:47 31° SSE 02:41:26 69° E 02:45:11 10° N
Cosmos 1602 3.6 02:39:14 10° NNW 02:43:01 60° W 02:43:13 59° WSW
ERS-1 4.5 02:38:28 10° N 02:43:34 66° WNW 02:45:42 35° SW
Cosmos 2263 Rocket 2.4 02:39:02 10° NNW 02:44:43 75° ENE 02:50:23 10° SE
Meteor 1-14 Rocket 4.1 02:41:12 10° NNW 02:46:52 76° W 02:52:24 10° S
SL-8 R/B 4.0 02:46:01 42° SW 02:46:55 47° SSW 02:51:30 10° ESE
Helios 1B 4.4 02:43:13 11° S 02:47:25 74° WSW 02:51:47 10° NNW
Cosmos 1818 4.2 02:46:11 30° W 02:48:18 43° NW 02:53:31 10° NE
ATLAS 2AS CENTAUR R/B 3.7 02:43:54 10° NW 02:51:27 53° NNE 02:58:27 10° ESE
SL-16 R/B 4.3 02:47:52 10° SSE 02:52:22 25° ESE 02:56:54 10° NE
Cosmos 1821 Rocket 4.3 02:47:19 10° NNW 02:53:13 43° W 02:56:29 24° SW
USA 307 3.3 02:52:25 35° SSW 02:53:49 53° SSE 02:57:59 10° ENE
Cosmos 1470 Rocket 4.0 02:50:36 10° NNW 02:54:45 40° W 02:55:25 37° WSW
Cosmos 2227 4.1 02:49:58 10° NNW 02:55:41 89° WSW 03:01:20 10° SSE
Spot 4 Rocket 4.0 02:51:19 10° NNE 02:56:28 74° WNW 02:59:44 23° SSW
Cosmos 1812 3.9 02:53:05 10° SSE 02:56:45 43° E 03:00:25 10° NNE
USA 308 3.3 02:55:23 34° SSW 02:56:54 55° SSE 03:01:05 10° ENE
Cosmos 1500 3.2 02:55:58 10° N 02:59:51 86° E 03:03:41 10° S
Cosmos 972 4.4 02:59:29 16° SSW 03:03:30 79° ESE 03:08:24 10° NNE
Cosmos 1666 3.7 03:01:58 10° N 03:05:42 47° ENE 03:09:24 10° SSE
Landsat 5 3.6 03:01:24 10° S 03:05:53 63° WSW 03:10:21 10° NNW
Meteor 1-5 Rocket 4.0 03:01:00 10° NNW 03:06:20 90° E 03:11:43 10° S
Cosmos 1934 Rocket 4.0 03:02:31 10° NNW 03:08:22 52° W 03:14:13 10° SSW
IRIDIUM 104 4.4 03:05:15 10° N 03:10:31 83° E 03:15:45 10° S
Cosmos 1238 Rocket 4.1 03:04:07 10° NNW 03:10:36 57° W 03:16:44 10° SSW
Cosmos 1782 3.1 03:10:11 29° SW 03:11:52 48° WNW 03:15:48 10° N
Cosmos 1898 Rocket 3.7 03:08:09 10° NNW 03:13:25 75° ENE 03:18:41 10° SSE
Lacrosse 5 1.8 03:12:00 25° SW 03:14:59 85° SSE 03:20:06 10° ENE
CZ-2C R/B 2.8 03:12:34 10° N 03:16:16 58° WNW 03:18:32 22° SW
USA 234 3.8 03:10:36 10° SSE 03:16:28 35° SW 03:22:22 10° WNW
ADEOS Rocket 3.2 03:09:39 10° SSE 03:16:29 86° ENE 03:22:37 10° NNW
CZ-4B R/B 2.1 03:13:27 10° SSE 03:16:32 53° ENE 03:19:43 10° N
ADEOS II 3.4 03:13:22 10° N 03:17:26 23° WNW 03:19:23 19° W
Cosmos 1515 Rocket 4.0 03:15:08 24° SW 03:17:26 44° WNW 03:21:43 10° N
IRIDIUM 114 4.3 03:14:25 10° N 03:19:41 84° W 03:24:54 10° S
USA 276 2.3 03:21:38 31° WSW 03:22:56 59° S 03:26:06 10° E
USA 32 4.2 03:18:34 10° N 03:23:51 76° E 03:29:05 10° SSE
MSX 3.9 03:21:15 10° N 03:26:56 59° WNW 03:32:35 10° SW
Cosmos 972 Rocket 4.5 03:24:15 21° WSW 03:27:03 39° WNW 03:31:44 10° N
Cosmos 1356 4.3 03:24:15 10° NNW 03:27:15 28° W 03:28:28 22° SW
Cosmos 44 3.2 03:24:49 15° SSW 03:28:25 77° SE 03:33:08 10° NE
IRIDIUM 103 4.3 03:23:35 10° N 03:28:49 71° W 03:33:59 10° S
IDEFIX/ARIANE 42P 3.2 03:25:50 10° N 03:30:42 38° WNW 03:34:28 16° SW
Cosmos 1707 Rocket 4.2 03:26:33 10° S 03:30:46 56° E 03:35:04 10° NNE
Cosmos 1605 Rocket 4.1 03:24:57 10° NNW 03:31:09 55° W 03:37:21 10° SSW
Meteor 1-11 Rocket 3.8 03:25:36 10° NNW 03:31:29 86° W 03:37:12 10° S
Cosmos 921 Rocket 2.9 03:28:02 10° SSW 03:32:13 90° ESE 03:36:26 10° NNE
Cosmos 2278 3.8 03:28:10 16° SW 03:32:48 62° NW 03:38:30 10° NNE
CZ-3B R/B 2.9 03:32:06 19° W 03:34:40 71° N 03:46:53 10° ENE
Cosmos 2228 Rocket 3.2 03:31:14 10° SSW 03:35:33 54° WNW 03:39:54 10° N
SAR-Lupe-4 3.6 03:34:36 10° SSE 03:38:12 85° E 03:41:50 10° NNW
ARIANE 5 R/B 3.6 03:34:49 10° N 03:39:04 27° WNW 03:42:11 15° WSW
Cosmos 2369 4.3 03:36:41 16° WSW 03:40:55 42° NW 03:46:23 10° NNE
Cosmos 1937 Rocket 3.5 03:37:22 10° NNW 03:42:34 89° WSW 03:47:42 10° SSE
CZ-4C R/B 4.3 03:42:39 13° SW 03:44:51 21° W 03:47:39 10° NW
ALOS 3.1 03:41:27 10° NNE 03:46:04 54° E 03:50:38 10° S
Cosmos 1733 Rocket 3.3 03:41:57 10° N 03:46:20 74° ENE 03:50:39 10° SSE
IRIDIUM 106 4.5 03:42:01 10° NNW 03:47:05 51° W 03:52:07 10° SSW
Meteor 1-27 Rocket 4.1 03:43:03 10° S 03:48:58 77° E 03:54:54 10° NNE
Cosmos 1536 2.8 03:46:01 10° NNW 03:50:06 79° W 03:54:10 10° S
SAR-Lupe-1 4.0 03:46:57 10° S 03:50:31 73° WSW 03:54:07 10° NNW
Cosmos 1869 Rocket 4.1 03:47:05 10° NNW 03:51:05 36° W 03:55:04 10° SSW
ATLAS 5 CENTAUR R/B 3.6 03:50:11 10° WNW 03:53:55 23° N 03:58:09 10° NE
Cosmos 1484 Rocket 3.3 03:50:58 10° NNE 03:54:56 67° ESE 03:58:54 10° S
Meteor 1-4 Rocket 2.5 03:54:20 10° SSW 03:57:44 57° WNW 04:01:14 10° N
USA 305 2.9 03:58:51 12° WSW 04:02:52 82° NNW 04:07:08 10° ENE
X-37B 2.3 04:01:25 11° WSW 04:03:45 21° S 04:06:14 10° SE
Cosmos 1862 Rocket 4.2 04:00:15 10° S 04:04:35 62° E 04:08:54 10° NNE
Cosmos 1689 Rocket 2.0 04:02:00 10° SSE 04:04:58 87° WSW 04:07:58 10° NNW
Meteor 1-31 Rocket 3.1 04:01:54 10° NNE 04:05:43 71° ESE 04:09:32 10° S
Cosmos 2100 Rocket 4.0 03:59:28 10° NNW 04:05:50 71° W 04:12:10 10° S
USA 306 2.9 04:02:46 11° WSW 04:06:57 80° NNW 04:11:14 10° ENE
SJ 16-02 2.3 04:03:20 10° NW 04:06:58 26° W 04:10:35 10° SSW
PSLV R/B 4.1 04:04:14 10° N 04:08:09 38° WNW 04:12:01 10° SW
Cosmos 1802 Rocket 4.0 04:02:00 10° N 04:08:13 86° W 04:14:28 10° S
Cosmos 1727 Rocket 4.1 04:02:00 10° SSW 04:08:17 61° WNW 04:14:35 10° N
Cosmos 1763 Rocket 3.6 04:02:59 10° SSW 04:08:19 90° SE 04:13:40 10° NNE
Cosmos 389 Rocket 4.2 04:06:11 10° WSW 04:08:30 16° WNW 04:10:52 10° NNW
Cosmos 2360 Rocket 3.5 04:07:39 10° S 04:13:00 44° ESE 04:18:22 10° NE
Cosmos 1437 Rocket 4.3 04:09:35 10° SSE 04:13:08 40° E 04:16:46 10° NNE
H-2A R/B 3.7 04:11:34 10° SW 04:14:17 16° W 04:17:02 10° NW
ERS-2 3.6 04:12:21 10° SW 04:14:58 18° W 04:17:35 10° NW
CZ-2C R/B 3.0 04:10:57 10° N 04:15:43 42° WNW 04:20:34 10° SW
NOSS 3-4 (A) 3.9 04:11:49 10° NW 04:18:40 69° SW 04:26:16 10° SSE
NOSS 3-4 (C) 3.9 04:11:55 10° NW 04:18:46 69° SW 04:26:23 10° SSE
Cosmos 1697 Rocket 4.0 04:14:58 10° W 04:19:33 25° NW 04:24:10 10° NNE
METEOR-M 4.3 04:14:44 10° NNE 04:20:08 86° ESE 04:25:30 10° SSW
USA 267 3.6 04:15:25 10° ENE 04:21:50 61° N 04:28:16 10° W
